#timestamp,LO_Frequency,Hit 
1498680015.1,286047036.5,N
1498680035.9,286047037.7,N
1498680055.7,286047039.6,N
1498680075.5,286047036.8,N
1498680095.3,286047038.8,N
1498680115.2,286047037.1,N
1498680135.0,286047037.8,N
1498680135.9,286047037.8,N
1498680155.7,286047036.8,N
1498680175.6,286047036.5,N
1498680195.4,286047037.7,N
1498680215.2,286047039.2,N
1498680235.1,286047039.6,N
1498680236.0,286047039.6,N
1498680255.8,286047036.7,N
1498680275.6,286047036.8,N
1498680295.5,286047039.0,N
1498680315.3,286047038.5,N
1498680335.1,286047039.7,N
1498680355.9,286047041.9,N
1498680375.7,286047040.1,N
1498680395.5,286047042.3,N
1498680415.4,286047042.6,N
1498680435.2,286047042.4,N
1498680455.0,286047041.9,N
1498680455.9,286047041.9,N
1498680475.8,286047042.0,N
1498680495.6,286047042.3,N
1498680515.4,286047041.4,N
1498680535.2,286047040.6,N
1498680555.1,286047040.5,N
1498680556.0,286047040.5,N
1498680575.8,286047039.8,N
1498680595.6,286047039.9,N
1498680615.5,286047039.8,N
1498680635.3,286047039.9,N
1498680655.1,286047040.3,N
1498680675.9,286047042.3,N
1498680695.7,286047039.8,N
1498680715.5,286047042.7,N
1498680735.4,286047041.8,N
1498680755.2,286047044.2,N
1498680775.0,286047043.7,N
1498680775.9,286047043.7,N
1498680795.8,286047042.2,N
1498680815.6,286047042.5,N
1498680835.4,286047042.7,N
1498680855.3,286047043.7,N
1498680875.1,286047044.2,N
1498680876.0,286047044.2,N
1498680895.8,286047041.9,N
1498680915.6,286047044.3,N
1498680935.5,286047043.2,N
1498680955.3,286047043.3,N
1498680975.1,286047045.5,N
1498680995.9,286047045.3,N
1498681015.7,286047045.7,N
1498681035.5,286047043.1,N
1498681055.4,286047045.2,N
1498681075.2,286047045.3,N
1498681095.0,286047044.8,N
1498681095.9,286047044.8,N
1498681115.8,286047044.8,N
1498681135.6,286047044.8,N
1498681155.4,286047045.4,N
1498681175.3,286047047.5,N
1498681195.1,286047046.6,N
1498681196.0,286047046.6,N
1498681215.8,286047046.3,N
1498681235.6,286047046.6,N
1498681255.5,286047046.7,N
1498681275.3,286047046.7,N
1498681295.1,286047047.4,N
1498681315.9,286047049.1,N
1498681335.7,286047048.4,N
1498681355.5,286047050.6,N
1498681375.4,286047049.0,N
1498681395.2,286047046.3,N
1498681415.0,286047046.7,N
1498681415.9,286047046.7,N
1498681435.8,286047048.7,N
1498681455.6,286047048.0,N
1498681475.4,286047050.7,N
1498681495.3,286047050.3,N
1498681515.1,286047050.4,N
1498681516.0,286047050.4,N
1498681535.8,286047050.4,N
1498681555.7,286047047.7,N
1498681575.5,286047048.2,N
1498681595.3,286047047.9,N
1498681615.1,286047048.1,N
1498681635.9,286047048.3,N
1498681655.7,286047050.4,N
1498681675.5,286047050.8,N
1498681695.4,286047050.3,N
1498681715.2,286047050.6,N
1498681735.0,286047047.8,N
1498681735.9,286047047.8,N
1498681755.8,286047050.6,N
1498681775.6,286047050.4,N
1498681795.4,286047049.9,N
1498681815.3,286047049.4,N
1498681835.1,286047049.8,N
1498681836.0,286047049.8,N
1498681855.8,286047052.4,N
1498681875.7,286047048.2,N
1498681895.5,286047052.2,N
1498681915.3,286047049.7,N
1498681935.1,286047050.0,N
1498681955.9,286047050.7,N
1498681975.7,286047049.9,N
1498681995.5,286047051.1,N
1498682015.4,286047052.2,N
1498682035.2,286047051.6,N
1498682055.0,286047051.4,N
1498682055.9,286047051.4,N
1498682075.8,286047051.5,N
1498682095.6,286047052.2,N
1498682115.4,286047051.1,N
1498682135.3,286047053.4,N
1498682155.1,286047053.0,N
1498682156.0,286047053.0,N
1498682175.8,286047053.7,N
1498682195.7,286047053.3,N
1498682215.5,286047051.0,N
1498682235.3,286047051.0,N
1498682255.1,286047053.9,N
1498682275.9,286047052.9,N
1498682295.7,286047054.0,N
1498682315.5,286047051.7,N
1498682335.4,286047051.5,N
1498682355.2,286047053.5,N
1498682375.0,286047051.1,N
1498682375.9,286047051.1,N
1498682395.8,286047051.4,N
1498682415.6,286047051.2,N
1498682435.4,286047053.8,N
1498682455.3,286047051.6,N
1498682475.1,286047053.2,N
1498682476.0,286047053.2,N
1498682495.8,286047054.7,N
1498682515.7,286047057.2,N
1498682535.5,286047054.8,N
1498682555.3,286047052.9,N
1498682575.2,286047052.5,N
1498682595.9,286047052.9,N
1498682615.7,286047052.8,N
1498682635.5,286047055.6,N
1498682655.4,286047055.4,N
1498682675.2,286047054.6,N
1498682695.0,286047056.8,N
1498682695.9,286047056.8,N
1498682715.8,286047054.1,N
1498682735.6,286047056.7,N
1498682755.4,286047057.0,N
1498682775.3,286047054.6,N
1498682795.1,286047056.4,N
1498682815.8,286047057.4,N
1498682835.7,286047057.9,N
1498682855.5,286047057.8,N
1498682875.3,286047057.6,N
1498682895.2,286047057.3,N
1498682915.9,286047057.5,N
1498682935.7,286047057.7,N
1498682955.6,286047059.2,N
1498682975.4,286047057.5,N
1498682995.2,286047056.2,N
1498683015.0,286047056.5,N
1498683015.9,286047056.5,N
1498683035.8,286047056.1,N
1498683055.6,286047058.1,N
1498683075.4,286047057.5,N
1498683095.3,286047060.4,N
1498683115.1,286047060.1,N
1498683116.0,286047060.1,N
1498683135.8,286047060.1,N
1498683155.7,286047059.6,N
1498683175.5,286047061.4,N
1498683195.3,286047062.4,N
1498683215.2,286047062.8,N
1498683235.9,286047062.5,N
1498683255.7,286047063.2,N
1498683275.6,286047063.2,N
1498683295.4,286047061.4,N
1498683315.2,286047060.7,N
1498683335.0,286047063.6,N
1498683335.9,286047063.6,N
1498683355.8,286047063.5,N
1498683375.6,286047064.7,N
1498683395.4,286047065.3,N
1498683415.3,286047066.7,N
1498683435.1,286047065.4,N
1498683455.8,286047066.8,N
1498683475.7,286047062.2,N
1498683495.5,286047065.1,N
1498683515.3,286047063.3,N
1498683535.2,286047062.9,N
1498683555.9,286047060.5,N
1498683575.7,286047063.1,N
1498683595.5,286047065.1,N
